Wind_Speed
43 42 41 40 40 40 40 41 42 42 42 43 43 44 45 44 43 43 45 46 47 49 52 55 57 58 59 62 63 62 60 60 62 58 47 43 46 56 66 71 75 75
43 42 41 40 40 40 40 40 41 42 42 42 42 43 44 43 42 42 44 45 46 48 52 55 57 57 58 60 60 58 59 60 56 43 36 38 44 51 58 65 69 70
42 41 41 40 39 39 39 39 40 41 41 41 42 44 43 41 40 41 43 43 45 47 51 54 55 56 56 57 56 55 56 54 43 31 34 37 41 44 48 56 60 65
41 41 40 39 39 38 38 39 40 40 41 41 42 43 43 40 38 39 41 42 43 46 49 52 54 53 53 54 53 52 51 45 30 26 32 34 37 39 42 49 55 60
41 41 40 38 38 38 38 38 39 40 40 41 42 43 42 40 37 38 40 40 42 45 47 50 52 51 49 49 50 49 45 37 23 21 28 28 31 35 39 45 51 54
41 40 39 38 37 37 38 38 39 39 40 40 41 42 42 39 36 36 38 38 40 43 45 48 50 49 45 44 47 45 39 33 19 16 24 24 28 32 35 41 47 47
40 39 38 37 37 37 37 38 38 39 40 40 40 41 41 39 35 35 36 36 38 40 42 46 47 46 41 39 42 40 35 31 15 13 21 22 25 25 30 40 43 39
39 38 37 37 37 37 37 37 38 39 39 39 39 40 41 39 34 33 35 34 35 37 40 42 44 43 38 33 35 34 32 28 11 11 17 19 21 22 30 37 34 31
38 37 37 37 37 37 37 37 37 38 38 38 38 39 40 39 34 32 33 33 32 34 37 39 41 40 35 28 27 25 24 23 11 6 15 19 21 21 25 27 26 31
38 38 37 37 37 37 37 37 37 37 38 37 37 38 39 38 34 31 32 32 31 32 33 35 37 37 32 25 20 15 12 11 5 10 18 22 21 18 19 24 29 34
39 38 37 37 37 37 37 37 37 37 38 37 36 37 38 38 35 31 30 31 30 30 30 31 33 34 30 24 16 8 4 3 5 13 20 23 23 22 22 25 30 34
40 39 39 38 38 38 37 37 37 37 38 37 36 36 37 37 34 31 30 30 29 28 28 28 29 30 28 23 16 9 9 12 13 16 21 25 28 29 28 28 29 31
41 41 40 39 39 39 38 37 37 38 38 37 36 35 35 35 34 31 29 29 29 27 27 27 26 27 26 22 17 14 13 17 20 20 22 26 29 30 28 28 29 30
43 42 41 40 39 39 39 38 38 38 38 37 36 35 34 33 32 30 28 28 29 27 26 26 25 24 25 22 17 16 16 18 22 23 24 25 27 27 25 25 27 31
43 42 41 41 40 40 40 39 38 38 38 37 37 35 33 32 31 29 27 27 29 28 25 25 24 23 23 23 19 14 16 19 21 23 24 25 26 26 25 24 26 31
44 43 42 42 42 41 41 40 39 39 38 38 37 35 34 32 30 28 27 26 27 27 26 25 24 23 22 22 21 16 12 17 21 24 26 27 28 29 28 27 27 31
46 45 44 44 43 43 42 41 40 39 39 38 37 36 34 32 30 28 26 25 26 27 26 24 23 23 21 21 22 20 14 12 17 22 26 28 29 31 31 30 31 33
48 47 47 46 46 44 43 42 40 40 39 38 38 37 35 33 31 29 26 25 25 26 26 24 23 22 21 20 20 20 18 15 14 18 23 27 29 32 33 34 35 36
49 49 49 49 48 46 43 42 40 39 39 38 38 37 36 34 33 30 27 25 25 25 26 25 23 22 21 20 19 19 18 17 15 17 21 25 29 32 34 36 37 37
50 51 52 51 49 47 45 43 41 39 38 38 38 38 37 36 34 32 29 26 25 25 26 25 24 23 21 20 19 18 17 16 15 16 19 23 26 28 30 31 31 32
52 53 54 53 51 49 47 44 43 41 39 39 39 39 39 38 36 34 32 29 26 26 26 26 26 25 23 21 20 19 18 16 15 16 18 21 24 25 26 27 28 29
55 56 56 55 53 51 49 48 46 44 42 41 40 41 41 40 38 36 34 31 28 26 27 27 27 27 25 24 22 21 20 18 17 16 17 19 21 23 25 25 25 25
57 58 58 57 55 54 53 51 49 47 45 43 42 42 42 41 40 38 36 33 31 28 28 28 28 28 28 27 25 23 22 21 20 19 18 18 19 20 22 23 23 23
60 60 60 59 58 57 56 55 53 50 47 45 45 44 43 43 42 40 38 36 33 31 29 29 29 29 30 29 28 27 26 24 23 22 21 20 20 20 20 21 22 22
62 62 61 61 60 60 59 58 56 53 50 49 47 45 44 44 43 42 40 38 36 34 32 31 30 30 31 31 31 31 29 28 27 26 24 23 23 23 23 23 23 23
64 64 63 63 63 63 62 61 59 56 54 52 50 47 46 45 45 44 42 40 38 36 34 33 32 32 32 32 33 33 33 32 30 29 28 27 27 26 26 26 26 26
Wind_Direction
265 266 267 268 269 272 275 278 280 283 286 290 293 297 299 303 304 304 304 306 309 312 314 315 313 309 307 308 308 306 298 292 298 295 275 256 248 240 233 229 224 219
263 264 265 266 268 271 274 277 280 283 286 290 294 297 299 303 305 304 305 308 311 314 317 318 316 312 312 312 311 307 299 299 302 286 253 244 247 242 234 229 223 217
260 261 263 265 267 270 273 276 279 282 286 290 293 296 299 303 305 305 307 309 312 316 319 320 317 314 315 315 314 311 306 308 304 268 238 238 244 241 234 226 218 213
258 259 261 263 266 269 273 276 279 282 286 289 292 295 299 303 305 305 308 310 313 317 320 322 319 317 318 318 318 318 316 317 304 254 233 235 238 233 223 214 208 208
256 258 260 262 265 268 272 275 278 281 285 288 292 295 298 303 305 306 309 311 314 318 322 323 321 319 322 323 323 324 324 325 310 247 229 231 228 217 207 203 204 204
255 257 260 262 265 268 271 274 277 280 284 287 291 294 297 302 306 307 309 312 315 319 323 325 324 322 325 329 328 328 332 336 322 238 222 220 212 206 204 202 200 196
255 257 259 261 264 267 270 273 276 279 283 287 291 294 297 302 305 307 310 312 315 320 324 327 326 323 327 333 330 331 341 347 332 221 211 208 203 204 199 193 189 187
254 257 259 261 263 266 268 271 274 278 282 286 290 293 296 300 305 306 309 311 314 319 324 327 328 325 327 334 333 334 347 353 344 204 203 198 192 189 183 183 187 190
255 257 259 260 263 265 267 270 273 277 281 285 289 293 296 299 304 306 308 310 313 318 323 327 329 327 326 332 336 338 347 356 4 178 184 177 171 169 174 183 191 194
255 256 258 260 262 264 266 268 272 276 280 285 289 293 295 298 302 305 306 308 311 316 321 327 330 329 325 325 332 337 342 359 40 148 164 169 172 171 174 184 190 194
254 256 257 259 261 263 265 267 271 274 279 284 288 292 294 297 300 303 305 307 309 313 318 325 329 330 326 319 317 316 283 242 185 178 181 183 183 180 179 188 194 200
254 255 257 259 260 262 263 266 269 273 278 283 287 290 293 295 298 301 303 304 307 310 315 321 327 331 329 318 303 279 232 221 217 208 202 197 189 185 189 199 205 207
254 255 256 258 259 260 262 265 268 272 276 281 285 288 290 292 295 299 301 302 304 307 311 317 323 328 331 323 302 274 239 225 225 221 213 206 201 199 202 209 212 211
253 254 255 257 258 259 261 264 267 271 275 279 283 285 286 289 291 295 298 299 301 304 306 311 318 323 328 329 312 278 250 235 231 230 226 219 216 216 219 221 219 215
253 254 254 255 256 258 260 263 266 269 273 277 280 281 282 284 287 291 294 295 297 300 302 305 312 318 322 328 326 296 258 241 237 236 237 235 235 238 241 241 234 225
252 253 254 254 255 256 259 261 264 267 271 274 277 278 278 279 282 286 288 290 292 294 297 300 306 312 316 321 326 319 280 248 238 238 241 244 248 251 250 245 238 229
252 252 253 253 254 255 257 260 263 266 268 271 273 274 274 275 277 280 282 284 286 289 292 295 299 305 310 314 320 323 312 274 246 238 239 242 246 249 247 240 233 228
250 251 252 252 252 253 256 258 261 264 265 267 269 270 270 272 274 275 276 278 280 283 286 288 291 296 301 306 312 317 317 304 273 249 242 240 241 242 242 238 232 229
249 250 250 250 251 252 255 257 259 261 263 264 266 267 267 268 270 272 272 272 274 276 279 281 283 286 291 295 301 307 312 307 290 266 249 241 236 235 235 234 232 231
247 248 249 250 251 252 254 256 258 259 260 261 262 264 264 266 268 269 270 269 269 270 272 274 276 278 280 284 288 293 298 299 290 273 256 245 239 235 234 236 237 237
245 246 248 249 250 252 254 255 256 256 257 257 259 261 262 263 265 267 267 267 266 266 266 267 268 271 272 274 277 280 283 285 283 276 264 253 247 244 241 240 239 239
243 244 246 248 250 252 253 254 255 255 255 255 257 258 260 261 263 264 266 266 265 263 262 262 262 263 265 266 267 269 271 273 272 270 267 261 254 251 247 243 239 237
242 243 245 247 249 250 252 252 253 253 254 255 255 257 258 259 261 262 264 264 264 261 259 259 259 259 260 261 261 260 261 263 264 262 261 260 257 253 250 247 244 241
241 242 244 246 247 249 250 251 251 252 253 254 255 256 257 258 259 260 262 262 262 260 257 256 256 256 256 257 258 257 255 255 257 257 256 254 253 251 247 244 241 240
240 241 243 245 246 248 249 249 250 251 253 254 255 255 256 257 257 258 259 260 260 260 257 255 253 253 254 254 255 256 255 253 251 252 252 251 249 248 246 243 239 236
238 240 241 243 246 247 248 248 248 249 251 253 255 255 254 255 256 256 257 257 258 259 257 255 253 251 251 252 252 253 255 254 252 250 249 249 248 247 246 245 243 240
Height
5731 5731 5732 5733 5733 5733 5733 5732 5732 5731 5731 5730 5729 5728 5726 5724 5722 5719 5715 5711 5708 5704 5698 5693 5687 5680 5674 5668 5662 5655 5648 5643 5638 5629 5623 5623 5625 5628 5634 5641 5648 5657
5726 5726 5727 5727 5728 5728 5728 5727 5727 5726 5726 5725 5724 5723 5721 5719 5718 5714 5710 5706 5702 5698 5693 5687 5680 5673 5666 5660 5653 5646 5640 5634 5626 5619 5617 5618 5620 5622 5627 5634 5642 5652
5720 5721 5722 5723 5723 5723 5723 5722 5722 5721 5721 5720 5719 5718 5716 5715 5713 5710 5706 5702 5698 5693 5688 5682 5674 5667 5660 5653 5647 5640 5633 5626 5617 5612 5613 5615 5617 5619 5623 5630 5639 5649
5715 5716 5717 5718 5718 5718 5718 5718 5717 5717 5716 5716 5715 5713 5712 5711 5709 5706 5702 5698 5694 5689 5684 5678 5671 5663 5656 5648 5641 5635 5627 5619 5611 5608 5610 5613 5615 5618 5622 5629 5638 5647
5710 5711 5712 5713 5713 5713 5713 5713 5712 5712 5712 5711 5710 5709 5707 5706 5705 5702 5698 5694 5690 5686 5681 5675 5667 5660 5653 5645 5637 5631 5624 5614 5608 5607 5610 5613 5616 5619 5624 5631 5639 5648
5705 5706 5707 5708 5708 5708 5708 5708 5708 5708 5707 5706 5705 5704 5703 5702 5700 5698 5695 5691 5687 5683 5678 5672 5665 5658 5652 5644 5637 5630 5623 5615 5609 5609 5613 5616 5618 5622 5628 5634 5642 5652
5700 5701 5702 5702 5703 5703 5703 5703 5703 5703 5702 5701 5701 5699 5698 5697 5696 5695 5691 5688 5685 5680 5676 5670 5663 5657 5652 5645 5638 5632 5626 5619 5614 5614 5617 5620 5623 5627 5633 5639 5648 5656
5694 5696 5697 5697 5698 5698 5698 5699 5698 5698 5697 5697 5696 5695 5694 5693 5692 5691 5688 5685 5682 5678 5674 5669 5663 5657 5652 5647 5641 5635 5630 5625 5622 5622 5623 5626 5629 5634 5639 5646 5653 5659
5689 5690 5691 5692 5693 5693 5693 5694 5694 5693 5693 5692 5691 5690 5689 5689 5688 5687 5685 5682 5680 5677 5673 5669 5663 5658 5653 5649 5645 5641 5636 5633 5630 5630 5631 5633 5636 5641 5646 5651 5656 5662
5683 5685 5686 5687 5687 5687 5688 5689 5689 5689 5688 5687 5687 5686 5685 5684 5684 5683 5682 5679 5677 5675 5672 5668 5663 5659 5655 5651 5648 5646 5645 5642 5640 5640 5641 5642 5644 5647 5651 5656 5660 5664
5678 5679 5681 5681 5682 5682 5683 5684 5684 5684 5683 5683 5682 5681 5680 5680 5679 5679 5679 5677 5675 5673 5670 5668 5664 5659 5656 5653 5651 5650 5650 5650 5650 5649 5649 5650 5651 5652 5656 5660 5663 5667
5672 5674 5675 5676 5677 5677 5678 5679 5679 5679 5679 5678 5678 5677 5676 5676 5675 5675 5675 5673 5672 5670 5668 5667 5664 5660 5657 5655 5653 5652 5652 5653 5654 5655 5655 5655 5656 5657 5660 5663 5665 5668
5667 5668 5670 5671 5671 5672 5673 5673 5674 5674 5674 5674 5674 5673 5672 5672 5671 5671 5670 5670 5669 5668 5667 5665 5663 5661 5658 5656 5654 5653 5652 5653 5654 5657 5658 5659 5659 5661 5663 5665 5667 5668
5661 5663 5664 5665 5666 5667 5667 5668 5669 5669 5670 5670 5669 5669 5669 5668 5667 5667 5667 5666 5665 5665 5664 5663 5662 5660 5658 5656 5654 5653 5652 5652 5653 5654 5657 5659 5660 5662 5663 5665 5667 5669
5656 5657 5659 5660 5661 5661 5662 5663 5664 5664 5665 5665 5665 5665 5665 5664 5664 5663 5663 5663 5662 5662 5661 5660 5659 5658 5657 5655 5654 5653 5652 5652 5652 5653 5654 5656 5658 5659 5661 5663 5665 5668
5650 5652 5653 5655 5655 5656 5657 5657 5658 5659 5660 5660 5660 5660 5661 5661 5660 5660 5660 5660 5660 5659 5659 5658 5657 5656 5655 5654 5653 5652 5652 5652 5652 5653 5654 5655 5656 5657 5659 5661 5663 5666
5644 5646 5647 5649 5650 5651 5651 5652 5653 5654 5655 5655 5656 5656 5656 5657 5657 5657 5657 5657 5657 5656 5656 5656 5655 5654 5653 5652 5651 5651 5651 5651 5652 5653 5654 5655 5656 5657 5658 5660 5662 5664
5638 5639 5641 5642 5644 5645 5646 5647 5648 5649 5650 5650 5651 5651 5652 5652 5653 5653 5653 5654 5654 5654 5653 5654 5654 5653 5652 5651 5650 5649 5649 5649 5650 5651 5653 5654 5655 5656 5657 5659 5661 5663
5631 5633 5634 5636 5637 5639 5641 5642 5643 5643 5644 5645 5646 5647 5647 5648 5648 5649 5650 5651 5651 5651 5651 5651 5651 5651 5650 5650 5649 5649 5648 5648 5649 5650 5651 5652 5653 5654 5655 5657 5659 5660
5624 5626 5628 5629 5632 5633 5635 5637 5637 5638 5639 5640 5641 5642 5642 5643 5644 5644 5645 5647 5648 5648 5648 5648 5649 5649 5649 5649 5648 5648 5648 5648 5648 5649 5650 5651 5652 5653 5655 5656 5658 5659
5618 5620 5622 5624 5625 5627 5629 5631 5632 5633 5634 5634 5635 5636 5637 5638 5639 5640 5641 5642 5644 5645 5645 5646 5646 5646 5647 5647 5647 5647 5647 5648 5648 5649 5649 5650 5651 5652 5653 5655 5656 5657
5610 5613 5615 5617 5619 5621 5623 5624 5625 5627 5628 5629 5630 5631 5632 5633 5634 5635 5636 5637 5639 5641 5641 5642 5643 5643 5644 5645 5645 5645 5646 5646 5647 5648 5648 5649 5649 5650 5651 5652 5653 5655
5603 5606 5608 5611 5613 5615 5616 5618 5619 5621 5622 5623 5624 5625 5626 5627 5628 5629 5631 5633 5634 5636 5637 5638 5639 5640 5641 5642 5642 5643 5643 5644 5645 5646 5646 5647 5648 5648 5649 5650 5651 5652
5596 5599 5601 5603 5606 5608 5609 5611 5613 5614 5616 5617 5618 5620 5621 5622 5623 5624 5626 5627 5629 5630 5632 5633 5634 5635 5637 5638 5639 5640 5640 5641 5642 5643 5644 5645 5646 5647 5647 5648 5649 5650
5589 5592 5594 5596 5598 5600 5601 5604 5606 5608 5610 5611 5612 5614 5615 5616 5618 5619 5620 5622 5623 5625 5627 5628 5629 5631 5632 5633 5635 5636 5637 5638 5639 5640 5641 5642 5643 5644 5645 5646 5647 5648
5581 5584 5587 5589 5590 5592 5594 5596 5599 5601 5603 5605 5606 5608 5609 5611 5612 5613 5615 5617 5618 5619 5621 5622 5624 5626 5627 5628 5630 5631 5632 5634 5635 5636 5637 5638 5640 5641 5642 5644 5645 5646